星链-31195 (STARLINK-31195 )

导读

STARLINK-31195是美国SpaceX公司星链(Starlink)星座的卫星,于北京时间2024年1月15日发射。作为第二代星链组网卫星,它采用平板设计,搭载相控阵天线与霍尔推进器,运行在近地轨道,旨在为全球提供高速低延迟卫星互联网服务,支撑星链全球覆盖目标,同时兼具民用互联网接入与潜在军事应用潜力。

Basic Information
目录编号:
58796
目录名称:
STARLINK-31195
国际标识:
2024-012K
轨道中心:
EARTH
卫星名称:
星链-31195
卫星全名:
星链-31195 (STARLINK-31195 )
卫星状态:
在轨 (已飞行970 天)
发射日期:
2024-01-15 UTC
国别 :
美国 (US)
星等 :
--
This satellite is enrolled in the Space Conjunction Data Service (SCDS) and the current flight risk assessment level is: No High Risk
Orbit Information
数据来源 国际轨道数据 AOE轨道数据
星历时间 2026-09-11T14:34:13+0800
10小时前
查看轨道信息
2026-09-10T23:00:00+0800
1天前
查看轨道信息
半长轴 6861.439km 6861.262km
偏心率 0.0000302 0.0002292
轨道倾角 43.000° 42.999°
近地点辐角 21.546° 344.757°
升交点赤经 197.594° 201.264°
平近点角 338.540° 43.438°
近地点 483.094km 481.552km
远地点 483.51km 484.698km
周期 94.272分钟 94.268分钟
每日圈数 15.274957 15.275547
Detailed Information
固有亮度:
5
最大亮度:
0.3
卫星平台:
Starlink v2.0 mini
覆盖范围:
全球
运营商:
太空探索技术公司
运营商所在国:
美国
制造商(研发单位):
太空探索技术公司
制造商所在国:
美国
使用方式:
暂无
Satellite Introduction
星链(Starlink)计划是由太空探索技术公司(SpaceX)提出的一个巨型低轨卫星互联网星座项目,计划在2019年至2024年间在太空搭建由约1.2万颗卫星组成的“星链”网络,其中1584颗将部署在地球上空550千米处的近地轨道,并从2020年开始工作。该卫星仍在工作。
2D Orbit Map
3D Orbit Map
Orbit Altitude Analysis Chart
Orbit Inclination Analysis Chart
Orbit Comprehensive Analysis Chart
View Comprehensive Chart
Conjunction Data List
Event ID Objects TCA Miss Dist (km) Collision Risk Probability Collision Risk Index (CRI) Action
CDM_260913-122605-879606-328121
2026-09-13T
12:26:51+0000
0.598 km
远距离
7.730317E-5 中风险 0.73
CDM_260910-121305-654605-879621
2026-09-10T
12:13:37+0000
0.590 km
远距离
6.946345E-5 中风险 0.72
CDM_260912-203505-879606-307321
2026-09-12T
20:35:05+0000
0.504 km
远距离
6.785E-5 中风险 0.72
CDM_260914-065005-879606-312421
2026-09-14T
06:50:17+0000
1.166 km
极远距离
1.216639E-5 中风险 0.57
CDM_260912-195805-879606-328121
2026-09-12T
19:58:14+0000
1.102 km
极远距离
1.071724E-5 中风险 0.56
CDM_260913-140105-879606-328121
2026-09-13T
14:01:00+0000
1.244 km
极远距离
7.053236E-6 低风险 0.52
CDM_260912-213205-879606-328121
2026-09-12T
21:32:23+0000
1.460 km
极远距离
4.14312E-6 低风险 0.47
CDM_260912-014905-879606-198121
2026-09-12T
01:49:00+0000
1.092 km
极远距离
4.085113E-6 低风险 0.47
CDM_260913-105205-879606-328121
2026-09-13T
10:52:42+0000
1.679 km
极远距离
2.705739E-6 低风险 0.44
CDM_260914-051605-879606-312421
2026-09-14T
05:16:07+0000
2.086 km
极远距离
2.03269E-6 低风险 0.41
Miss Distance Evolution Trend with All Objects
Collision Probability Evolution Trend with All Objects